Tracking 27371 objects as of 7-Jun-2023
HD Live streaming from Space Station
objects crossing your sky now

GNOMES-1

Track GNOMES-1 now!
10-day predictions


NORAD ID: 46266
Int'l Code: 2020-059B
Perigee: 598.9 km
Apogee: 608.0 km
Inclination: 97.9 °
Period: 96.6 minutes
Semi major axis: 6974 km
RCS: Unknown
Launch date: August 30, 2020
Source: United States (US)
Launch site: AIR FORCE EASTERN TEST RANGE (AFETR)
Your satellite tracking list
Your tracking list is empty




NASA's NSSDC Master Catalog

Two Line Element Set (TLE):
1 46266U 20059B   23157.58010765  .00002069  00000-0  21746-3 0  9990
2 46266  97.8700 352.1058 0006513  69.7288 290.4629 14.90533105150195
Source of the keplerian elements: AFSPC